DECAYED

STARLINK-3269, 50194 (Decayed)

Orbit data source: Space-Track

STARLINK-3269, 50194 was a payload satellite owned by SpaceX/Seattle (US) in LEO that was launched on Sat, 18 Dec 2021 UTC via an FALCON 9 launch vehicle from the Air Force Western Test Range (AFWTR). Payload-class satellites include a variety of spacecraft equipped with specific instruments for various scientific and technological missions. These include communications satellites like Starlink; space stations such as the ISS; scientific satellites like the Hubble; Earth observation satellites from companies like Planet Labs, Umbra, and HawkEye 360; GPS; miniature CubeSats for education and research; and military/defense satellites.

Not visible in the next 10 days
Identifier
50194, 2021-125AQ
Orbit
Decayed
Country
Flag of USUS
Related business
Manufacturer
SpaceX/Seattle
Mission
Decayed Commercial Communications
Bus & Motor
STARLINK, Unknown motor
Mass
290 kg wet, ~270 kg dry
Launch date (UTC)
2021-12-18 (5 years ago)
Launch vehicle
FALCON 9
Launch site
Air Force Western Test Range (AFWTR)
Object type
Payload
Rocket body
Debris
Shape & HBR
Box + 1 Pan, 10.1 m
Radar Cross Section
13.562 m², Large (>1 m²)

Expand to show TLE details & history
Last TLE update: 3 months ago

TLE from 3 months ago
0 STARLINK-3269
1 50194U 21125AQ  26064.67265354  .09588046  12372-4  92034-3 0  9996
2 50194  53.1881 150.6040 0006596 323.2989  36.7605 16.37618117237689
Epoch: 2026-03-05T16:08Z
TLE epoch observation values (Epoch: 2026-03-05T16:08:37.265Z)
Latitude
-0.00012°
Longitude
105.029°
Altitude
169.63 km
Speed
7.808 km/s
True Right ascension
10h 02m 24s
True Declination
0° 00' 00"
Sunlit
Object was in full shadow at epoch
Visualization orbit readout
Latitude
Unknown
Longitude
Unknown
Altitude
Unknown
Speed
Unknown
Apparent Right ascension
Unknown
Apparent Declination
Unknown
Sunlit
N/A
Visualization observer readout
Local Sidereal Time
18:41:10
Azimuth
Unknown
Elevation
Unknown
Doppler factor
Unknown
Orbital elements
Apogee altitude
176.73 km
Perigee altitude
168.089 km
Semi-major axis
6,550.546 km
Eccentricity
0.00066
Inclination
53.1881°
RAAN
150.604°
Arg. of periapsis
323.2989°
True anomaly
36.80577°
Mean anomaly
36.7605°
Eccentric anomaly
36.78313°
Mean motion
4.0938 °/min
Orbital period
87.94 mins
BSTAR
0.00092034
Loading maneuver chart data...
Computing Atmospheric mass density...

Documentation

Showing up to 5 results
|